Location: Unspecified
(51.6250°N, 0.8230°E)
Time: 10:27:24
(UTC+01:00)

Okean 3 - Pass Details

Date: 14 August 2020
Orbit: 576 x 601 km, 82.5° (Epoch: 23 September)

Event Time Altitude Azimuth Distance (km) Brightness Sun altitude
Rises 00:22:51 0° 333° (NNW) 2,856 8.2 -23.6°
Reaches altitude 10° 00:26:12 10° 305° (NW) 1,950 6.7 -23.6°
Maximum altitude 00:28:04 13° 279° (W) 1,774 6.1 -23.7°
Enters shadow 00:29:30 11° 258° (WSW) 1,875 6.0 -23.7°
